Bolton Field, OH

11:58 AM EDT on May 20, 2018 (GMT -0400)
Bolton

Weather History for KTZR - January, 2014

Change the Weather History Date:

Wednesday, January 15, 2014

  Actual Average Record
Temperature  
Mean Temperature 26 °F -  
Max Temperature 32 °F 32 °F 57 °F (2007)
Min Temperature 19 °F 20 °F -9 °F (2009)
Degree Days  
Heating Degree Days 39    
Moisture  
Dew Point 18 °F    
Average Humidity 71    
Maximum Humidity 87    
Minimum Humidity 59    
Precipitation  
Precipitation 0.00 in - - ()
Sea Level Pressure  
Sea Level Pressure 29.98 in    
Wind  
Wind Speed 9 mph (WSW)    
Max Wind Speed 17 mph    
Max Gust Speed 25 mph    
Visibility 10 miles    
Events Snow    
Averages and records for this station are not official NWS values.
T = Trace of Precipitation, MM = Missing Value Source: NWS Daily Summary

Daily Weather History Graph

Daily Weather History Graph

Search for Another Location

Airport or City:

Astronomy

Jan. 15, 2014 Rise Set
Actual Time 7:52 AM EST 5:32 PM EST
Civil Twilight 7:22 AM EST 6:01 PM EST
Nautical Twilight 6:49 AM EST 6:35 PM EST
Astronomical Twilight 6:16 AM EST 7:07 PM EST
Moon 5:28 PM EST (1/15) 7:07 AM EST (1/15)
Length of Visible Light 10h 39m
Length of Day
9h 39m
Full, 100% of the Moon is Illuminated
Jan 15
Full
Jan 15
Full
Jan 24
Last Quarter
Jan 30
New
Feb 6
First Quarter

Hourly Weather History & Observations

Time (EST) Temp. Windchill Dew Point Humidity Pressure Visibility Wind Dir Wind Speed Gust Speed Precip Events Conditions
12:15 AM 33.1 °F 26.9 °F 25.5 °F 74% 29.87 in 10.0 mi West 6.9 mph - N/A   Overcast
12:35 AM 32.9 °F 25.9 °F 26.1 °F 76% 29.86 in 10.0 mi West 8.1 mph - N/A   Overcast
12:55 AM 32.5 °F 24.2 °F 26.4 °F 78% 29.86 in 10.0 mi WSW 10.4 mph - N/A   Overcast
1:15 AM 32.2 °F 22.3 °F 25.5 °F 76% 29.87 in 10.0 mi WSW 13.8 mph 23.0 mph N/A   Overcast
1:35 AM 31.8 °F 21.0 °F 23.4 °F 71% 29.88 in 10.0 mi West 16.1 mph 21.9 mph N/A   Overcast
1:55 AM 30.7 °F 19.2 °F 20.7 °F 66% 29.89 in 10.0 mi West 17.3 mph 25.3 mph N/A   Overcast
2:15 AM 29.5 °F 20.4 °F 17.8 °F 62% 29.89 in 10.0 mi West 10.4 mph 20.7 mph N/A   Mostly Cloudy
2:35 AM 29.1 °F 18.9 °F 18.1 °F 64% 29.90 in 10.0 mi West 12.7 mph 18.4 mph N/A   Scattered Clouds
2:55 AM 29.1 °F 20.6 °F 18.0 °F 63% 29.90 in 10.0 mi West 9.2 mph 16.1 mph N/A   Mostly Cloudy
3:15 AM 28.6 °F 17.2 °F 18.1 °F 65% 29.91 in 10.0 mi WSW 15.0 mph 21.9 mph N/A   Scattered Clouds
3:35 AM 28.0 °F 16.5 °F 17.2 °F 64% 29.91 in 10.0 mi West 15.0 mph 21.9 mph N/A   Clear
3:55 AM 27.5 °F 16.3 °F 17.1 °F 65% 29.92 in 10.0 mi West 13.8 mph - N/A   Clear
4:15 AM 27.5 °F 18.0 °F 17.4 °F 66% 29.92 in 10.0 mi West 10.4 mph - N/A   Mostly Cloudy
4:35 AM 27.5 °F 17.4 °F 18.1 °F 68% 29.93 in 10.0 mi WSW 11.5 mph - N/A   Overcast
4:55 AM 27.5 °F 17.4 °F 18.0 °F 67% 29.93 in 10.0 mi WSW 11.5 mph - N/A   Overcast
5:15 AM 27.5 °F 16.3 °F 18.5 °F 69% 29.93 in 10.0 mi WSW 13.8 mph - N/A   Overcast
5:35 AM 27.7 °F 18.8 °F 17.6 °F 66% 29.94 in 10.0 mi WSW 9.2 mph - N/A   Overcast
5:55 AM 27.9 °F 17.8 °F 17.8 °F 66% 29.94 in 10.0 mi WSW 11.5 mph 16.1 mph N/A   Overcast
6:15 AM 28.0 °F 19.3 °F 17.8 °F 65% 29.94 in 10.0 mi WSW 9.2 mph 16.1 mph N/A   Overcast
7:30 AM 28.4 °F 18.5 °F 19.4 °F 69% 29.96 in 10.0 mi WSW 11.5 mph - N/A   Overcast
7:50 AM 28.4 °F 18.5 °F 19.4 °F 69% 29.97 in 10.0 mi WSW 11.5 mph - N/A   Overcast
8:50 AM 26.6 °F 16.2 °F 19.4 °F 74% 29.99 in 10.0 mi WSW 11.5 mph - N/A   Overcast
9:16 AM 26.6 °F 15.7 °F 19.4 °F 74% 30.01 in 2.5 mi WSW 12.7 mph - N/A Snow Light Snow
9:36 AM 26.6 °F 17.5 °F 19.4 °F 74% 30.01 in 5.0 mi West 9.2 mph - N/A Snow Light Snow
9:50 AM 26.6 °F 16.8 °F 19.4 °F 74% 30.02 in 10.0 mi West 10.4 mph - N/A   Overcast
10:55 AM 26.6 °F 19.1 °F 19.4 °F 74% 30.04 in 10.0 mi West 6.9 mph - N/A   Overcast
11:50 AM 26.6 °F 18.2 °F 17.6 °F 69% 30.03 in 10.0 mi West 8.1 mph - N/A   Overcast
12:50 PM 28.4 °F 19.7 °F 15.8 °F 59% 30.00 in 10.0 mi West 9.2 mph - N/A   Mostly Cloudy
1:50 PM 26.6 °F 16.8 °F 15.8 °F 64% 30.00 in 10.0 mi West 10.4 mph - N/A   Overcast
2:50 PM 26.6 °F 17.5 °F 15.8 °F 64% 30.00 in 10.0 mi WSW 9.2 mph - N/A   Overcast
3:55 PM 26.6 °F 18.2 °F 15.8 °F 64% 30.01 in 10.0 mi West 8.1 mph 17.3 mph N/A Snow Light Snow
4:50 PM 26.6 °F 19.1 °F 14.0 °F 59% 30.02 in 10.0 mi West 6.9 mph - N/A   Overcast
5:55 PM 24.8 °F 19.1 °F 15.8 °F 69% 30.04 in 10.0 mi West 4.6 mph - N/A   Overcast
6:35 PM 23.9 °F 18.0 °F 14.9 °F 69% 30.05 in 10.0 mi West 4.6 mph - N/A   Mostly Cloudy
6:55 PM 23.7 °F 16.6 °F 15.3 °F 70% 30.06 in 10.0 mi West 5.8 mph - N/A   Overcast
7:15 PM 23.7 °F - 16.2 °F 73% 30.06 in 10.0 mi Calm Calm - N/A   Overcast
7:35 PM 24.3 °F 19.9 °F 16.7 °F 73% 30.06 in 10.0 mi WNW 3.5 mph - N/A   Overcast
7:55 PM 24.4 °F 18.6 °F 16.5 °F 72% 30.06 in 10.0 mi West 4.6 mph - N/A   Overcast
8:15 PM 24.4 °F 20.1 °F 16.7 °F 72% 30.06 in 10.0 mi West 3.5 mph - N/A   Overcast
8:35 PM 24.3 °F 19.9 °F 16.9 °F 73% 30.06 in 10.0 mi West 3.5 mph - N/A   Overcast
8:55 PM 23.7 °F - 17.2 °F 76% 30.05 in 10.0 mi Calm Calm - N/A   Overcast
9:15 PM 23.7 °F 19.3 °F 17.4 °F 77% 30.05 in 10.0 mi West 3.5 mph - N/A   Overcast
9:35 PM 23.7 °F 17.8 °F 17.6 °F 77% 30.05 in 10.0 mi West 4.6 mph - N/A   Overcast
9:55 PM 23.0 °F 18.4 °F 17.4 °F 79% 30.05 in 10.0 mi West 3.5 mph - N/A   Overcast
10:15 PM 22.5 °F - 16.9 °F 79% 30.05 in 10.0 mi Calm Calm - N/A   Overcast
10:35 PM 20.8 °F 16.0 °F 16.7 °F 84% 30.05 in 10.0 mi WSW 3.5 mph - N/A   Mostly Cloudy
10:55 PM 20.7 °F 15.8 °F 16.7 °F 85% 30.04 in 10.0 mi WSW 3.5 mph - N/A   Mostly Cloudy
11:15 PM 20.1 °F 13.6 °F 16.5 °F 86% 30.04 in 10.0 mi SW 4.6 mph - N/A   Mostly Cloudy
11:35 PM 19.0 °F 12.3 °F 15.8 °F 87% 30.03 in 10.0 mi SW 4.6 mph - N/A   Scattered Clouds
11:55 PM 19.0 °F - 15.4 °F 86% 30.02 in 10.0 mi North - - N/A   Scattered Clouds